Weather Roundup
Issued by NWS

Home | Current Version | Previous Version | Graphics & Text | Print | Product List | Glossary Off
Versions: 1 2 3 4 5 6 7 8 9 10 11 12 13 14 15 16 17 18 19 20 21 22 23 24 25 26 27 28 29 30 31 32 33 34 35 36 37 38 39 40 41 42 43 44 45 46 47 48 49 50

177
NZUS93 KARX 271710
HRRWXR

CURRENT HOURLY OBSERVATIONS ACROSS
MUCH OF THE UPPER MISSISSIPPI VALLEY
NATIONAL WEATHER SERVICE LA CROSSE WI
1200 PM CDT TUE JUN 27 2017


...SOUTHEAST MINNESOTA...


CITY           SKY/WX    TMP DP  RH WIND       PRES   REMARKS
ROCHESTER      SUNNY     71  43  36 S14       30.08F
ROCHESTER/MAYO FAIR      70  40  33 W6        30.07F
WINONA         SUNNY     72  43  35 W5        30.07F
AUSTIN         SUNNY     70  43  37 S10       30.07F
ALBERT LEA     SUNNY     70  39  32 S12       30.06F
DODGE CENTER   SUNNY     70  39  32 SW10G18   30.07F
PRESTON        SUNNY     69  40  35 S8        30.09F
OWATONNA       SUNNY     72  43  35 S13G18    30.05F
FARIBAULT      SUNNY     72  43  35 S10G16    30.05F
$$

...ELSEWHERE IN MINNESOTA...


CITY           SKY/WX    TMP DP  RH WIND       PRES   REMARKS
MINNEAPOLIS    PTSUNNY   72  42  34 S10       30.03F
INTNL FALLS    SUNNY     71  43  36 SW13G21   29.90F
DULUTH         MOSUNNY   70  43  37 SW12G20   29.98F
RED WING       SUNNY     73  37  27 SW5       30.04F
REDWOOD FALLS  SUNNY     73  40  30 S16G26    29.99F
MANKATO        MOSUNNY   70  40  33 S13       30.04F
WORTHINGTON    SUNNY     70  46  42 S17       30.01F
FAIRMONT       SUNNY     70  43  37 S14G22    30.05F
$$

...SOUTHWEST WISCONSIN...


CITY           SKY/WX    TMP DP  RH WIND       PRES   REMARKS
LA CROSSE      SUNNY     76  45  33 VRB6      30.07F
PRAIRIE DU CHI SUNNY     71  41  33 SW3       30.09F
BOSCOBEL       MOSUNNY   72  44  36 NW6       30.10F
LONE ROCK      SUNNY     73  44  35 MISG      30.10F
PLATTEVILLE    SUNNY     71  42  36 S7        30.12F
FORT MC COY    MOSUNNY   71  46  40 NW3       30.09F
CAMP DOUGLAS   PTSUNNY   72  48  43 W8        30.08F
MAUSTON-NEW LI MOSUNNY   71  48  44 SW10      30.08F
VIROQUA        FAIR      69  45  41 S3        30.10F
WIS DELLS      MOSUNNY   68  44  42 W7        30.09F
$$

...ELSEWHERE IN WISCONSIN...


CITY           SKY/WX    TMP DP  RH WIND       PRES   REMARKS
MILWAUKEE      MOSUNNY   72  46  39 W14G21    30.09F
MADISON        MOSUNNY   70  47  43 NW7       30.10F
GREEN BAY      SUNNY     72  56  57 VRB7      30.04F
EAU CLAIRE     SUNNY     71  44  37 S12G17    30.05F
BLACK RVR FLS  FAIR      73  40  29 W7        30.07F
MEDFORD        MOSUNNY   67  46  46 W9        30.06F
WAUSAU         MOSUNNY   71  46  40 W12       30.04F
WIS RAPIDS     MOSUNNY   72  46  39 W13       30.08F
MARSHFIELD     SUNNY     70  46  42 W10       30.06F
RICE LAKE      SUNNY     70  44  39 W8G26     30.06F
$$

...NORTHEAST IOWA...


CITY           SKY/WX    TMP DP  RH WIND       PRES   REMARKS
WATERLOO       SUNNY     71  41  33 S10       30.09F
DUBUQUE        SUNNY     70  43  37 VRB3      30.13F
DECORAH        SUNNY     70  41  35 VRB5G14   30.09F
MASON CITY     SUNNY     71  42  35 S14G23    30.09F
CHARLES CITY   SUNNY     72  41  33 S12       30.09F
OELWEIN        NOT AVBL
$$

...ELSEWHERE IN IOWA...


CITY           SKY/WX    TMP DP  RH WIND       PRES   REMARKS
DES MOINES     MOSUNNY   73  46  38 S9G22     30.09F
IOWA CITY      SUNNY     73  45  36 E5        30.13F
FORT DODGE     SUNNY     73  43  33 S13G21    30.08F
MARSHALLTOWN   SUNNY     71  44  37 S6        30.09F
CEDAR RAPIDS   SUNNY     70  47  43 S9        30.12F
$$

...NORTHERN ILLINOIS...


CITY           SKY/WX    TMP DP  RH WIND       PRES   REMARKS
CHICAGO-OHARE  MOSUNNY   73  44  35 NW12      30.12S
CHICAGO-MIDWAY MOSUNNY   72  46  39 NW10      30.12F
MOLINE         SUNNY     72  43  35 SE6       30.13F
ROCKFORD       MOSUNNY   74  45  35 N9        30.14F
PEORIA         SUNNY     71  45  39 W6        30.16S
$$

NOTE: "FAIR" INDICATES FEW OR NO CLOUDS BELOW 12,000 FEET WITH NO
SIGNIFICANT WEATHER AND/OR OBSTRUCTIONS TO VISIBILITY. WIND
SPEEDS ARE IN MILES-PER-HOUR.




USA.gov is the U.S. government's official web portal to all federal, state and local government web resources and services.